Year,Month,Day,Hour,Minute,Value (Times are PST for temperature in C)
2016,08,11,09,19,20.80
2016,08,11,09,20,20.80
2016,08,11,09,21,20.80
2016,08,11,09,22,20.80
2016,08,11,09,23,20.80
2016,08,11,09,24,20.80
2016,08,11,09,25,20.80
2016,08,11,09,26,20.80
2016,08,11,09,27,20.80
2016,08,11,09,28,20.80
2016,08,11,09,29,20.80
2016,08,11,09,30,20.80
2016,08,11,09,31,20.80
2016,08,11,09,32,20.80
2016,08,11,09,33,20.80
2016,08,11,09,34,20.90
2016,08,11,09,35,20.90
2016,08,11,09,36,21.00
2016,08,11,09,37,21.00
2016,08,11,09,38,21.10
2016,08,11,09,39,21.10
2016,08,11,09,40,21.20
2016,08,11,09,41,21.20
2016,08,11,09,42,21.30
2016,08,11,09,43,21.30
2016,08,11,09,44,21.40
2016,08,11,09,45,21.40
2016,08,11,09,46,21.40
2016,08,11,09,47,21.40
2016,08,11,09,48,21.40
2016,08,11,09,49,21.40
2016,08,11,09,50,21.40
2016,08,11,09,51,21.40
2016,08,11,09,52,21.40
2016,08,11,09,53,21.40
2016,08,11,09,54,21.40
2016,08,11,09,55,21.50
2016,08,11,09,56,21.50
2016,08,11,09,57,21.60
2016,08,11,09,58,21.60
2016,08,11,09,59,21.60
2016,08,11,10,00,21.70
2016,08,11,10,01,21.70
2016,08,11,10,02,21.80
2016,08,11,10,03,21.90
2016,08,11,10,04,21.90
2016,08,11,10,05,22.00
2016,08,11,10,06,22.00
2016,08,11,10,07,22.00
2016,08,11,10,08,22.00
2016,08,11,10,09,22.00
2016,08,11,10,10,22.00
2016,08,11,10,11,22.00
2016,08,11,10,12,22.10
2016,08,11,10,13,22.10
2016,08,11,10,14,22.20
2016,08,11,10,15,22.20
2016,08,11,10,16,22.30
2016,08,11,10,17,22.30
2016,08,11,10,18,22.30
2016,08,11,10,19,22.30
2016,08,11,10,20,22.30
2016,08,11,10,21,22.30
2016,08,11,10,22,22.40
2016,08,11,10,23,22.40
2016,08,11,10,24,22.40
2016,08,11,10,25,22.50
2016,08,11,10,26,22.60
2016,08,11,10,27,22.60
2016,08,11,10,28,22.50
2016,08,11,10,29,22.50
2016,08,11,10,30,22.40
2016,08,11,10,31,22.40
2016,08,11,10,32,22.40
2016,08,11,10,33,22.40
2016,08,11,10,34,22.50
2016,08,11,10,35,22.50
2016,08,11,10,36,22.50
2016,08,11,10,37,22.40
2016,08,11,10,38,22.40
2016,08,11,10,39,22.40
2016,08,11,10,40,22.40
2016,08,11,10,41,22.40
2016,08,11,10,42,22.40
2016,08,11,10,43,22.40
2016,08,11,10,44,22.50
2016,08,11,10,45,22.50
2016,08,11,10,46,22.50
2016,08,11,10,47,22.60
2016,08,11,10,48,22.60
2016,08,11,10,49,22.60
2016,08,11,10,50,22.60
2016,08,11,10,51,22.60
2016,08,11,10,52,22.60
2016,08,11,10,53,22.70
2016,08,11,10,54,22.70
2016,08,11,10,55,22.70
2016,08,11,10,56,22.70
2016,08,11,10,57,22.80
2016,08,11,10,58,22.80
2016,08,11,10,59,22.90
2016,08,11,11,00,22.90
2016,08,11,11,01,22.90
2016,08,11,11,02,22.80
2016,08,11,11,03,22.80
2016,08,11,11,04,22.80
2016,08,11,11,05,22.80
2016,08,11,11,06,22.90
2016,08,11,11,07,23.00
2016,08,11,11,08,22.90
2016,08,11,11,09,22.90
2016,08,11,11,10,22.90
2016,08,11,11,11,22.90
2016,08,11,11,12,22.90
2016,08,11,11,13,22.90
2016,08,11,11,14,22.90
2016,08,11,11,15,23.00
2016,08,11,11,16,23.00
2016,08,11,11,17,23.10
2016,08,11,11,18,23.10
2016,08,11,11,19,23.10
2016,08,11,11,20,23.20
2016,08,11,11,21,23.20
2016,08,11,11,22,23.10
2016,08,11,11,23,23.00
2016,08,11,11,24,23.00
2016,08,11,11,25,22.90
2016,08,11,11,26,22.90
2016,08,11,11,27,22.90
2016,08,11,11,28,22.90
2016,08,11,11,29,23.00
2016,08,11,11,30,23.10
2016,08,11,11,31,23.10
2016,08,11,11,32,23.10
2016,08,11,11,33,23.20
2016,08,11,11,34,23.20
2016,08,11,11,35,23.30
2016,08,11,11,36,23.30
2016,08,11,11,37,23.40
2016,08,11,11,38,23.40
2016,08,11,11,39,23.40
2016,08,11,11,40,23.40
2016,08,11,11,41,23.50
2016,08,11,11,42,23.50
2016,08,11,11,43,23.50
2016,08,11,11,44,23.60
2016,08,11,11,45,23.60
2016,08,11,11,46,23.60
2016,08,11,11,47,23.70
2016,08,11,11,48,23.70
2016,08,11,11,49,23.70
2016,08,11,11,50,23.70
2016,08,11,11,51,23.60
2016,08,11,11,52,23.60
2016,08,11,11,53,23.60
2016,08,11,11,54,23.60
2016,08,11,11,55,23.60
2016,08,11,11,56,23.70
2016,08,11,11,57,23.70
2016,08,11,11,58,23.70
2016,08,11,11,59,23.70
2016,08,11,12,00,23.70
2016,08,11,12,01,23.70
2016,08,11,12,02,23.60
2016,08,11,12,03,23.60
2016,08,11,12,04,23.60
2016,08,11,12,05,23.60
2016,08,11,12,06,23.60
2016,08,11,12,07,23.70
2016,08,11,12,08,23.70
2016,08,11,12,09,23.70
2016,08,11,12,10,23.70
2016,08,11,12,11,23.80
2016,08,11,12,12,23.80
2016,08,11,12,13,23.80
2016,08,11,12,14,23.70
2016,08,11,12,15,23.70
2016,08,11,12,16,23.70
2016,08,11,12,17,23.60
2016,08,11,12,18,23.70
2016,08,11,12,19,23.70
2016,08,11,12,20,23.70
2016,08,11,12,21,23.70
2016,08,11,12,22,23.80
2016,08,11,12,23,23.80
2016,08,11,12,24,23.80
2016,08,11,12,25,23.90
2016,08,11,12,26,23.90
2016,08,11,12,27,24.00
2016,08,11,12,28,24.10
2016,08,11,12,29,24.10
2016,08,11,12,30,24.20
2016,08,11,12,31,24.20
2016,08,11,12,32,24.30
2016,08,11,12,33,24.30
2016,08,11,12,34,24.30
2016,08,11,12,35,24.40
2016,08,11,12,36,24.40
2016,08,11,12,37,24.40
2016,08,11,12,38,24.50
2016,08,11,12,39,24.50
2016,08,11,12,40,24.60
2016,08,11,12,41,24.60
2016,08,11,12,42,24.60
2016,08,11,12,43,24.70
2016,08,11,12,44,24.80
2016,08,11,12,45,24.90
2016,08,11,12,46,25.00
2016,08,11,12,47,25.00
2016,08,11,12,48,25.00
2016,08,11,12,49,25.00
2016,08,11,12,50,25.00
2016,08,11,12,51,24.90
2016,08,11,12,52,24.90
2016,08,11,12,53,24.80
2016,08,11,12,54,24.80
2016,08,11,12,55,24.80
2016,08,11,12,56,24.80
2016,08,11,12,57,24.80
2016,08,11,12,58,24.80
2016,08,11,12,59,24.70
2016,08,11,13,00,24.80
2016,08,11,13,01,24.80
2016,08,11,13,02,24.90
2016,08,11,13,03,25.00
2016,08,11,13,04,25.00
2016,08,11,13,05,25.00
2016,08,11,13,06,25.10
2016,08,11,13,07,25.20
2016,08,11,13,08,25.20
2016,08,11,13,09,25.10
2016,08,11,13,10,25.00
2016,08,11,13,11,24.90
2016,08,11,13,12,24.80
2016,08,11,13,13,24.80
2016,08,11,13,14,24.80
2016,08,11,13,15,24.80
2016,08,11,13,16,24.90
2016,08,11,13,17,25.00
2016,08,11,13,18,25.00
2016,08,11,13,19,25.10
2016,08,11,13,20,25.10
2016,08,11,13,21,25.10
2016,08,11,13,22,25.20
2016,08,11,13,23,25.30
2016,08,11,13,24,25.30
2016,08,11,13,25,25.40
2016,08,11,13,26,25.40
2016,08,11,13,27,25.40
2016,08,11,13,28,25.40
2016,08,11,13,29,25.40
2016,08,11,13,30,25.40
2016,08,11,13,31,25.40
2016,08,11,13,32,25.40
2016,08,11,13,33,25.40
2016,08,11,13,34,25.50
2016,08,11,13,35,25.50
2016,08,11,13,36,25.50
2016,08,11,13,37,25.40
2016,08,11,13,38,25.30
2016,08,11,13,39,25.30
2016,08,11,13,40,25.30
2016,08,11,13,41,25.30
2016,08,11,13,42,25.30
2016,08,11,13,43,25.30
2016,08,11,13,44,25.30
2016,08,11,13,45,25.30
2016,08,11,13,46,25.30
2016,08,11,13,47,25.40
2016,08,11,13,48,25.40
2016,08,11,13,49,25.50
2016,08,11,13,50,25.70
2016,08,11,13,51,25.80
2016,08,11,13,52,26.00
2016,08,11,13,53,26.10
2016,08,11,13,54,26.20
2016,08,11,13,55,26.30
2016,08,11,13,56,26.30
2016,08,11,13,57,26.30
2016,08,11,13,58,26.30
2016,08,11,13,59,26.40
2016,08,11,14,00,26.40
2016,08,11,14,01,26.40
2016,08,11,14,02,26.40
2016,08,11,14,03,26.50
2016,08,11,14,04,26.60
2016,08,11,14,05,26.70
2016,08,11,14,06,26.70
2016,08,11,14,07,26.50
2016,08,11,14,08,26.40
2016,08,11,14,09,26.20
2016,08,11,14,10,26.00
2016,08,11,14,11,25.90
2016,08,11,14,12,25.80
2016,08,11,14,13,25.80
2016,08,11,14,14,25.90
2016,08,11,14,15,25.90
2016,08,11,14,16,25.90
2016,08,11,14,17,25.90
2016,08,11,14,18,25.90
2016,08,11,14,19,25.90
2016,08,11,14,20,26.00
2016,08,11,14,21,26.00
2016,08,11,14,22,26.10
2016,08,11,14,23,26.10
2016,08,11,14,24,26.20
2016,08,11,14,25,26.30
2016,08,11,14,26,26.40
2016,08,11,14,27,26.50
2016,08,11,14,28,26.70
2016,08,11,14,29,26.70
2016,08,11,14,30,26.70
2016,08,11,14,31,26.70
2016,08,11,14,32,26.60
2016,08,11,14,33,26.60
2016,08,11,14,34,26.60
2016,08,11,14,35,26.40
2016,08,11,14,36,26.30
2016,08,11,14,37,26.30
2016,08,11,14,38,26.30
2016,08,11,14,39,26.30
2016,08,11,14,40,26.30
2016,08,11,14,41,26.40
2016,08,11,14,42,26.50
2016,08,11,14,43,26.50
2016,08,11,14,44,26.50
2016,08,11,14,45,26.50
2016,08,11,14,46,26.50
2016,08,11,14,47,26.60
2016,08,11,14,48,26.50
2016,08,11,14,49,26.50
2016,08,11,14,50,26.50
2016,08,11,14,51,26.60
2016,08,11,14,52,26.60
2016,08,11,14,53,26.70
2016,08,11,14,54,26.80
2016,08,11,14,55,26.90
2016,08,11,14,56,27.00
2016,08,11,14,57,27.00
2016,08,11,14,58,27.10
2016,08,11,14,59,27.10
2016,08,11,15,00,27.00
2016,08,11,15,01,27.00
2016,08,11,15,02,27.00
2016,08,11,15,03,26.90
2016,08,11,15,04,26.80
2016,08,11,15,05,26.80
2016,08,11,15,06,26.90
2016,08,11,15,07,26.90
2016,08,11,15,08,26.90
2016,08,11,15,09,26.90
2016,08,11,15,10,26.90
2016,08,11,15,11,26.90
2016,08,11,15,12,26.90
2016,08,11,15,13,26.90
2016,08,11,15,14,26.90
2016,08,11,15,15,26.80
2016,08,11,15,16,26.80
2016,08,11,15,17,26.70
2016,08,11,15,18,26.70
2016,08,11,15,19,26.70
2016,08,11,15,20,26.80
2016,08,11,15,21,26.80
2016,08,11,15,22,26.90
2016,08,11,15,23,26.90
2016,08,11,15,24,27.00
2016,08,11,15,25,27.00
2016,08,11,15,26,26.90
2016,08,11,15,27,26.90
2016,08,11,15,28,26.90
2016,08,11,15,29,26.90
2016,08,11,15,30,26.90
2016,08,11,15,31,26.90
2016,08,11,15,32,27.00
2016,08,11,15,33,27.00
2016,08,11,15,34,27.00
2016,08,11,15,35,27.00
2016,08,11,15,36,27.10
2016,08,11,15,37,27.20
2016,08,11,15,38,27.20
2016,08,11,15,39,27.20
2016,08,11,15,40,27.20
2016,08,11,15,41,27.30
2016,08,11,15,42,27.30
2016,08,11,15,43,27.30
2016,08,11,15,44,27.40
2016,08,11,15,45,27.40
2016,08,11,15,46,27.50
2016,08,11,15,47,27.50
2016,08,11,15,48,27.60
2016,08,11,15,49,27.70
2016,08,11,15,50,27.70
2016,08,11,15,51,27.80
2016,08,11,15,52,27.90
2016,08,11,15,53,27.90
2016,08,11,15,54,27.90
2016,08,11,15,55,27.90
2016,08,11,15,56,28.00
2016,08,11,15,57,28.00
2016,08,11,15,58,28.10
2016,08,11,15,59,28.10
2016,08,11,16,00,28.20
2016,08,11,16,01,28.20
2016,08,11,16,02,28.20
2016,08,11,16,03,28.20
2016,08,11,16,04,28.10
2016,08,11,16,05,28.10
2016,08,11,16,06,28.00
2016,08,11,16,07,28.00
2016,08,11,16,08,27.90
2016,08,11,16,09,27.80
2016,08,11,16,10,27.70
2016,08,11,16,11,27.60
2016,08,11,16,12,27.60
2016,08,11,16,13,27.60
2016,08,11,16,14,27.60
2016,08,11,16,15,27.70
2016,08,11,16,16,27.70
2016,08,11,16,17,27.80
2016,08,11,16,18,27.90
2016,08,11,16,19,27.90
2016,08,11,16,20,28.00
2016,08,11,16,21,27.90
2016,08,11,16,22,27.80
2016,08,11,16,23,27.80
2016,08,11,16,24,27.90
2016,08,11,16,25,27.90
2016,08,11,16,26,27.90
2016,08,11,16,27,28.00
2016,08,11,16,28,28.00
2016,08,11,16,29,28.00
2016,08,11,16,30,28.10
2016,08,11,16,31,28.10
2016,08,11,16,32,28.10
2016,08,11,16,33,28.20
2016,08,11,16,34,28.20
2016,08,11,16,35,28.20
2016,08,11,16,36,28.10
2016,08,11,16,37,28.10
2016,08,11,16,38,28.00
2016,08,11,16,39,27.90
2016,08,11,16,40,27.90
2016,08,11,16,41,27.80
2016,08,11,16,42,27.80
2016,08,11,16,43,27.70
2016,08,11,16,44,27.70
2016,08,11,16,45,27.70
2016,08,11,16,46,27.70
2016,08,11,16,47,27.70
2016,08,11,16,48,27.80
2016,08,11,16,49,27.80
2016,08,11,16,50,27.80
2016,08,11,16,51,27.80
2016,08,11,16,52,27.80
2016,08,11,16,53,27.80
2016,08,11,16,54,27.80
2016,08,11,16,55,27.70
2016,08,11,16,56,27.70
2016,08,11,16,57,27.70
2016,08,11,16,58,27.60
2016,08,11,16,59,27.60
2016,08,11,17,00,27.50
2016,08,11,17,01,27.50
2016,08,11,17,02,27.50
2016,08,11,17,03,27.60
2016,08,11,17,04,27.60
2016,08,11,17,05,27.60
2016,08,11,17,06,27.70
2016,08,11,17,07,27.70
2016,08,11,17,08,27.80
2016,08,11,17,09,27.80
2016,08,11,17,10,27.80
2016,08,11,17,11,27.70
2016,08,11,17,12,27.70
2016,08,11,17,13,27.70
2016,08,11,17,14,27.70
2016,08,11,17,15,27.70
2016,08,11,17,16,27.80
2016,08,11,17,17,27.80
2016,08,11,17,18,27.90
2016,08,11,17,19,28.00
2016,08,11,17,20,28.00
2016,08,11,17,21,28.10
2016,08,11,17,22,28.10
2016,08,11,17,23,28.10
2016,08,11,17,24,28.00
2016,08,11,17,25,28.10
2016,08,11,17,26,28.10
2016,08,11,17,27,28.00
2016,08,11,17,28,28.00
2016,08,11,17,29,27.90
2016,08,11,17,30,27.90
2016,08,11,17,31,27.90
2016,08,11,17,32,27.90
2016,08,11,17,33,28.00
2016,08,11,17,34,28.00
2016,08,11,17,35,27.90
2016,08,11,17,36,27.90
2016,08,11,17,37,27.90
2016,08,11,17,38,27.90
2016,08,11,17,39,27.90
2016,08,11,17,40,27.80
2016,08,11,17,41,27.80
2016,08,11,17,42,27.80
2016,08,11,17,43,27.70
2016,08,11,17,44,27.70
2016,08,11,17,45,27.60
2016,08,11,17,46,27.60
2016,08,11,17,47,27.70
2016,08,11,17,48,27.70
2016,08,11,17,49,27.70
2016,08,11,17,50,27.70
2016,08,11,17,51,27.80
2016,08,11,17,52,27.80
2016,08,11,17,53,27.80
2016,08,11,17,54,27.90
2016,08,11,17,55,27.90
2016,08,11,17,56,27.90
2016,08,11,17,57,27.90
2016,08,11,17,58,27.90
2016,08,11,17,59,27.80
2016,08,11,18,00,27.80
2016,08,11,18,01,27.80
2016,08,11,18,02,27.80
2016,08,11,18,03,27.80
2016,08,11,18,04,27.80
2016,08,11,18,05,27.80
2016,08,11,18,06,27.80
2016,08,11,18,07,27.80
2016,08,11,18,08,27.80
2016,08,11,18,09,27.80
2016,08,11,18,10,27.80
2016,08,11,18,11,27.80
2016,08,11,18,12,27.80
2016,08,11,18,13,27.80
2016,08,11,18,14,27.80
2016,08,11,18,15,27.80
2016,08,11,18,16,27.80
2016,08,11,18,17,27.80
2016,08,11,18,18,27.80
2016,08,11,18,19,27.80
2016,08,11,18,20,27.80
2016,08,11,18,21,27.80
2016,08,11,18,22,27.80
2016,08,11,18,23,27.80
2016,08,11,18,24,27.80
2016,08,11,18,25,27.80
2016,08,11,18,26,27.80
2016,08,11,18,27,27.80
2016,08,11,18,28,27.80
2016,08,11,18,29,27.80
2016,08,11,18,30,27.80
2016,08,11,18,31,27.80
2016,08,11,18,32,27.80
2016,08,11,18,33,27.80
2016,08,11,18,34,27.80
2016,08,11,18,35,27.80
2016,08,11,18,36,27.80
2016,08,11,18,37,27.80
2016,08,11,18,38,27.70
2016,08,11,18,39,27.70
2016,08,11,18,40,27.60
2016,08,11,18,41,27.50
2016,08,11,18,42,27.50
2016,08,11,18,43,27.50
2016,08,11,18,44,27.50
2016,08,11,18,45,27.50
2016,08,11,18,46,27.50
2016,08,11,18,47,27.50
2016,08,11,18,48,27.50
2016,08,11,18,49,27.50
2016,08,11,18,50,27.50
2016,08,11,18,51,27.50
2016,08,11,18,52,27.50
2016,08,11,18,53,27.50
2016,08,11,18,54,27.50
2016,08,11,18,55,27.50
2016,08,11,18,56,27.50
